Starlink 36225

operational
NORAD ID: 67207 Int'l Des: 2025-304 Owner: SPXS Country: US Constellation: starlink
LEOCIRCULAR

关于 Starlink 36225

正在加载描述...

实时位置

正在加载3D地球...

即将过境

高度历史

Altitude vs Time

uPlot chart will show altitude changes over time

两行轨道根数

1 67207C 25304R 25352.76576389 .00727510 00000+0 99537-3 0 3524
2 67207 69.9979 31.2768 0009234 253.8379 226.3018 16.05152936 16
Epoch: Dec 18, 2025 • Age: 54 hours

当前状态

高度 260.3 km
速度 7.75 km/s
星下点 21.32°N, 141.73°W
发射日期 Dec 17, 2025
运行时间 2 days
类型 internet

技术详情

分类 Payload
质量 575.00 kg
干质量 530.00 kg
总质量 575.00 kg
长度 0.30 m
直径 4.10 m
跨度 29.00 m
形状 Box + pan
制造商 SPXS
平台类型 Starlink V2MO
阶段状态 In Orbit
所有者/国家 SPXS/US

大型星座

Loading constellations...